Theta_e
312 315 316 315 315 313 313 315 314 314 313 314 316 316 316 316 316 315 316 317 317 316 315 312 310 310 314 316 316 316 316 315 315 319 320 320 322 323 324 323 323 322 324 321
313 315 315 313 313 313 313 314 315 315 313 313 316 316 316 316 316 316 317 318 318 318 314 309 309 309 310 313 314 314 314 313 312 313 317 318 319 319 320 321 320 321 319 316
313 313 312 313 312 313 314 315 315 314 314 313 314 316 317 316 315 316 316 316 316 316 314 311 308 308 309 311 311 312 312 311 311 311 307 313 316 313 311 312 314 316 316 315
314 312 312 313 313 313 314 313 314 314 316 316 315 315 317 318 319 317 317 317 316 314 313 311 309 308 308 309 309 309 310 309 309 306 307 311 312 304 305 312 312 313 314 311
314 314 313 314 314 313 315 312 314 315 317 316 317 318 317 317 319 319 320 318 314 312 310 310 308 307 307 308 307 308 309 307 305 309 310 309 308 308 311 307 307 307 308 309
313 310 313 314 311 312 311 314 314 313 316 321 319 319 319 320 320 320 318 314 312 311 309 306 304 305 305 306 305 307 307 307 305 308 309 309 308 306 303 299 301 302 302 299
314 314 311 311 313 311 314 317 322 324 322 323 316 319 320 319 317 317 316 314 313 309 307 306 306 305 305 305 305 306 306 305 304 305 304 306 307 305 305 304 298 297 298 296
317 317 315 313 316 316 314 318 322 333 324 322 314 320 321 317 317 315 313 312 311 309 307 305 305 305 305 304 304 305 305 304 303 303 302 303 306 306 303 300 297 296 294 291
318 318 313 311 313 316 315 317 317 321 311 322 322 322 317 316 316 314 314 312 312 308 306 304 303 303 304 302 303 304 304 303 302 301 301 303 304 303 301 300 298 295 292 291
317 320 313 312 312 312 315 316 319 320 330 330 324 322 323 320 318 315 314 314 310 306 305 304 303 302 303 302 303 303 302 302 301 299 300 301 301 299 298 297 295 293 292 291
316 318 316 311 314 317 315 316 316 318 321 328 328 324 318 320 317 315 314 311 310 307 306 304 303 302 302 303 303 302 301 301 300 298 299 299 297 296 296 295 293 292 290 288
315 319 323 318 311 312 315 318 317 323 323 319 320 325 313 314 315 314 313 310 308 306 305 303 302 301 300 301 302 301 300 299 298 296 296 296 297 295 293 292 291 289 288 287
316 317 323 321 317 315 314 314 316 318 318 324 326 325 308 309 310 309 311 309 306 303 303 301 301 300 300 301 300 300 299 299 297 295 294 292 291 291 290 290 290 289 288 289
315 313 319 326 321 319 318 315 314 318 323 324 322 322 315 312 312 311 309 308 306 304 303 303 302 300 299 299 299 299 298 297 295 294 293 291 290 289 289 289 288 288 288 286
312 314 314 318 319 317 319 320 317 316 318 322 322 321 319 317 313 314 311 308 306 304 303 303 303 302 299 298 298 298 297 296 294 294 292 291 290 288 288 287 286 285 284 282
312 315 313 316 314 315 315 318 318 319 319 318 319 320 318 317 317 316 312 312 310 307 306 304 302 299 298 297 297 296 296 295 293 293 292 291 289 287 288 286 285 284 283 283
311 312 315 318 316 316 318 317 318 317 317 318 320 319 317 317 315 315 315 314 313 312 310 308 304 302 299 297 296 295 295 293 292 292 291 290 289 287 286 286 284 283 282 282
310 310 312 316 314 318 315 311 315 318 317 315 314 315 315 315 314 314 314 314 312 311 310 309 308 304 301 298 295 294 293 292 292 291 290 288 288 286 285 284 283 282 281 281
308 310 314 316 316 315 314 311 314 316 318 316 316 316 316 315 312 313 311 309 311 311 309 307 306 304 301 296 295 293 291 291 291 290 289 288 287 285 284 283 282 281 280 280
305 307 311 313 315 315 315 305 303 312 318 304 313 315 315 314 316 316 306 304 304 301 299 298 298 298 296 294 292 291 290 289 289 289 288 287 286 286 284 283 281 281 280 280
306 307 309 311 313 314 310 303 303 316 314 302 303 305 306 311 312 307 300 301 298 297 297 295 294 294 293 291 290 290 289 289 289 288 287 286 286 285 284 283 282 281 281 281
307 309 311 312 312 313 302 304 311 307 302 298 300 299 300 302 303 302 301 300 298 297 295 292 291 290 290 289 289 289 288 288 288 287 287 286 285 284 283 282 281 281 281 280
304 305 306 307 309 306 302 304 305 300 302 302 299 299 296 298 299 299 299 297 296 293 292 292 290 289 289 288 288 288 288 287 287 286 285 285 284 283 282 282 281 281 281 281
298 299 301 302 300 301 301 302 300 300 299 299 296 295 293 295 295 295 295 293 292 291 290 289 289 288 288 289 288 289 288 287 287 285 284 283 283 282 282 281 281 281 281 281
298 297 298 299 298 299 300 301 300 299 296 295 294 292 292 293 294 293 293 292 291 290 288 290 289 288 288 287 287 288 288 287 286 285 284 283 283 282 282 282 282 282 282 282
296 296 297 298 297 297 298 299 296 296 297 296 294 294 291 290 292 292 290 290 288 288 288 287 286 288 287 286 287 287 287 287 286 284 283 283 283 282 282 283 283 282 283 282
Wind_Speed
2 7 12 18 17 4 2 3 8 5 2 4 14 17 21 17 16 19 19 21 21 21 15 14 18 22 22 23 24 24 23 22 22 25 23 20 22 22 23 23 26 31 30 30
4 13 16 1 7 7 7 11 14 11 5 5 12 17 20 21 21 20 20 21 23 18 8 12 18 24 28 28 27 26 25 24 23 20 24 24 24 23 24 24 24 26 27 29
16 4 7 10 6 10 12 15 11 9 5 5 8 14 11 13 13 19 23 25 21 17 12 12 17 23 25 27 29 28 26 23 22 19 19 22 21 18 21 22 24 25 26 28
11 5 5 9 10 12 15 11 9 7 3 8 2 10 12 12 17 11 17 14 12 11 10 10 14 18 24 25 22 23 23 23 22 23 21 27 26 15 18 24 24 24 25 27
6 10 10 11 8 14 3 5 7 3 7 5 10 7 6 5 11 17 18 5 3 1 3 7 10 13 16 20 21 22 22 21 23 25 25 24 21 20 20 20 22 23 25 26
1 1 4 3 3 5 13 6 4 2 2 9 13 10 14 9 14 13 7 3 5 2 2 1 3 7 12 16 19 21 22 22 22 26 25 27 24 22 19 19 22 23 25 26
4 6 2 3 7 3 4 8 3 4 5 10 2 9 20 8 7 8 7 5 2 1 0 1 4 7 10 15 17 19 20 20 20 21 21 24 26 22 24 25 22 23 27 29
15 12 15 13 13 9 12 10 7 7 6 7 3 9 6 13 11 9 8 6 5 6 4 4 4 7 10 12 15 18 21 20 20 20 20 22 24 24 23 21 20 26 25 27
9 10 3 3 5 12 8 11 7 6 2 4 10 18 10 12 14 9 10 7 7 4 3 4 6 7 9 11 15 18 20 20 20 19 21 23 24 24 23 24 26 27 26 31
4 8 2 4 3 4 10 10 5 5 6 9 13 10 12 6 14 11 10 7 3 3 4 5 7 10 10 12 15 17 19 20 19 19 21 23 23 23 22 24 27 30 30 31
9 6 3 5 12 16 6 8 5 3 5 6 13 13 5 11 7 10 8 5 6 7 7 7 8 11 12 13 16 18 20 22 23 24 24 24 23 24 25 25 27 29 31 34
9 3 9 10 1 3 10 14 18 7 7 4 3 20 4 5 6 9 8 6 7 7 8 8 10 11 12 15 17 19 20 21 22 22 23 25 27 28 28 28 28 30 32 35
5 3 3 4 2 3 6 10 16 15 4 11 8 16 4 2 7 4 5 6 5 7 9 8 9 11 13 15 18 19 21 22 22 22 21 20 21 25 27 29 30 31 35 36
4 5 6 6 3 4 6 7 13 18 9 11 22 22 1 4 8 7 9 9 10 10 8 8 8 10 14 17 20 22 22 22 22 22 21 21 21 23 25 29 30 34 37 40
5 2 2 14 8 5 9 14 17 17 20 10 24 21 20 10 9 11 10 7 10 12 10 11 10 10 16 18 19 20 21 21 22 22 23 22 20 21 26 27 28 31 36 41
8 4 4 6 8 11 12 16 16 24 26 27 30 27 18 8 16 18 10 12 13 13 14 12 10 9 15 20 22 22 24 26 26 25 24 24 24 26 30 30 31 33 37 39
0 2 5 7 1 4 9 19 23 22 23 23 23 28 19 12 12 14 15 15 15 12 12 12 13 14 21 24 25 25 27 25 29 27 27 29 29 29 31 31 32 34 37 39
4 2 2 3 2 10 8 4 15 21 24 18 19 25 18 14 10 13 14 10 12 13 13 13 12 17 18 19 21 21 25 28 29 27 28 28 29 29 30 31 33 34 37 40
16 7 4 5 11 11 12 6 7 9 16 23 25 26 27 22 5 21 11 13 15 14 10 11 13 15 12 15 17 23 24 25 26 27 28 29 31 31 32 33 34 34 35 36
6 12 8 7 8 7 5 4 2 4 12 7 8 19 23 10 10 14 4 2 5 4 6 9 11 10 9 11 19 22 21 23 25 27 27 29 31 32 32 31 31 33 33 35
3 3 12 13 12 5 4 4 1 8 3 7 6 8 8 6 6 5 0 2 3 5 6 6 5 6 7 11 18 16 16 19 19 21 25 29 30 32 32 31 30 32 32 30
6 6 4 5 8 13 4 2 3 1 3 3 9 7 8 9 9 8 7 7 4 3 5 4 3 2 3 8 15 14 15 16 21 24 27 29 30 30 30 31 29 30 30 29
4 5 3 5 3 5 3 9 12 4 6 6 4 5 4 9 6 8 5 4 3 2 4 5 4 2 4 8 14 12 11 17 20 23 25 27 29 29 29 30 28 27 27 26
3 2 4 1 8 13 8 10 8 5 8 9 9 7 5 6 8 9 8 5 3 3 1 4 3 5 8 12 13 11 12 17 21 23 24 24 25 25 26 27 28 27 27 27
8 5 10 10 17 10 12 11 10 8 11 8 5 5 7 7 6 6 6 7 5 6 4 6 4 9 11 10 12 13 17 21 23 22 21 21 21 22 22 24 26 27 28 33
13 16 9 10 16 10 12 14 4 6 5 7 7 6 6 7 7 4 6 9 7 7 2 4 4 6 9 12 11 12 17 20 21 19 18 16 16 19 17 19 18 21 21 26
Wind_Direction
116 203 202 212 219 233 138 210 255 244 194 221 246 261 271 276 267 263 261 259 254 250 245 228 214 209 206 205 202 201 198 199 199 197 196 196 197 199 202 205 215 211 213 203
171 229 220 209 178 206 232 252 258 280 270 228 275 263 269 266 256 254 259 258 256 263 244 209 213 206 204 203 204 201 202 199 201 203 203 205 200 202 203 203 205 213 211 209
216 207 210 194 191 202 227 234 243 258 318 229 286 271 236 267 258 255 256 255 266 268 260 232 214 209 207 205 203 202 201 200 200 196 196 199 197 200 198 198 203 205 205 208
237 191 156 192 224 210 245 212 221 244 268 274 324 285 269 266 267 252 254 247 253 253 249 255 226 212 208 209 204 203 200 199 198 197 195 199 196 186 201 200 199 201 205 206
205 182 190 207 212 185 235 142 182 187 230 305 232 268 247 228 250 256 258 240 220 206 245 235 222 217 209 202 201 200 199 198 201 200 202 199 203 204 203 200 199 199 200 205
294 45 207 230 106 171 140 101 81 90 218 258 247 227 276 210 230 247 269 189 151 329 327 222 166 181 192 194 199 198 198 198 201 203 205 207 203 203 193 193 194 198 196 193
180 212 187 165 112 87 198 164 210 228 203 257 96 212 249 292 220 242 230 182 254 166 80 230 174 175 188 189 194 195 195 195 194 195 203 207 211 208 203 201 192 190 194 194
213 226 187 186 217 176 190 196 210 241 230 277 129 235 252 234 269 233 229 251 250 255 237 216 180 178 186 190 194 194 194 195 192 192 200 205 212 214 211 206 204 202 197 195
192 234 191 221 179 179 182 217 248 268 102 283 252 258 253 232 240 237 236 239 234 194 178 168 165 178 185 192 196 197 197 197 194 195 203 210 214 213 211 211 210 203 201 198
208 260 160 158 178 211 214 149 175 213 229 244 253 264 249 232 234 228 222 208 173 156 177 155 172 183 188 191 195 198 201 202 194 195 203 208 212 214 212 211 211 210 204 195
228 237 142 137 206 183 170 201 219 228 222 248 275 266 199 238 189 188 170 172 178 192 190 182 189 188 192 193 194 199 200 199 195 196 199 202 204 209 214 215 213 211 203 192
203 189 222 204 59 301 249 216 195 201 202 238 292 266 124 202 181 167 183 184 188 199 192 184 187 186 193 198 198 200 203 205 204 201 199 200 204 206 207 208 209 208 200 193
160 201 173 164 263 286 230 217 220 235 51 214 206 261 45 106 155 197 210 224 205 215 202 186 188 197 200 202 204 206 206 206 203 200 198 197 200 203 204 205 205 201 197 195
282 168 217 252 33 115 197 222 225 213 207 220 226 248 116 217 223 209 218 219 206 214 214 216 204 210 211 210 208 207 208 205 201 197 195 198 199 203 205 210 206 199 197 195
168 264 287 266 271 231 240 213 212 238 232 220 249 242 242 235 243 237 222 202 212 231 230 233 221 216 216 217 215 213 211 205 201 198 196 200 202 202 206 207 204 199 197 194
185 219 171 253 247 259 253 252 240 217 222 227 245 251 245 245 239 248 228 226 239 236 235 238 232 224 222 219 216 210 207 203 197 198 198 195 194 198 208 206 201 199 197 196
162 195 185 254 238 254 234 239 231 236 237 228 242 246 254 252 234 228 239 247 251 250 246 243 232 227 225 217 212 209 204 196 194 194 195 197 196 197 203 204 200 196 195 195
200 224 288 276 39 254 240 183 226 229 240 238 257 266 276 263 256 241 245 259 249 252 254 248 244 243 235 226 213 208 197 193 192 192 193 193 192 191 194 196 197 194 194 195
214 209 244 249 248 284 286 199 184 179 243 234 239 254 257 268 279 266 234 225 251 270 282 276 267 258 242 220 209 195 190 189 189 191 191 190 193 189 191 192 193 191 188 189
204 221 223 226 249 261 297 27 11 77 258 11 249 250 265 273 252 271 66 285 277 288 281 288 286 268 232 208 194 185 186 188 195 192 190 192 194 197 194 194 189 192 191 190
132 177 225 230 239 250 341 346 246 188 308 341 334 314 293 262 247 304 300 259 275 289 311 304 284 261 229 194 188 181 186 199 197 187 188 196 201 203 203 195 192 190 191 193
200 189 208 222 231 239 30 7 240 168 255 344 321 319 317 305 298 289 279 273 270 298 329 329 301 270 213 191 186 179 191 191 189 193 195 197 200 196 196 194 189 190 187 191
228 219 241 212 256 196 223 224 238 221 235 209 241 285 303 309 296 301 281 243 262 3 340 341 307 231 188 191 195 186 192 191 193 195 194 197 199 194 193 189 186 185 189 196
235 140 223 155 259 260 274 258 257 244 240 238 231 211 191 264 300 300 291 262 225 186 118 322 282 252 224 196 198 209 203 197 193 191 190 187 186 184 190 191 192 190 192 197
245 177 246 268 274 279 248 251 270 266 244 251 252 230 213 189 250 242 274 281 268 266 196 179 215 260 248 226 204 190 190 192 188 187 184 180 182 183 186 194 196 200 207 203
234 242 238 252 266 272 274 277 244 266 269 236 232 266 241 237 248 214 239 243 238 242 256 244 238 210 227 212 196 185 197 193 189 185 185 182 180 186 192 198 206 219 221 220